Regional Weather Roundup
Issued by NWS Columbia, SC

Home | Current Version | Previous Version | Text Only | Print | Product List | Glossary On
Versions: 1 2 3 4 5 6 7 8 9 10 11 12 13 14 15 16 17 18 19 20 21 22 23 24 25 26 27 28 29 30 31 32 33 34 35 36 37 38 39 40 41 42 43 44 45 46 47 48 49 50
000
ASUS42 KCAE 261010
RWRCAE
REGIONAL WEATHER ROUNDUP
NATIONAL WEATHER SERVICE COLUMBIA SC
500 AM EST WED NOV 26 2014

NOTE: "FAIR" INDICATES FEW OR NO CLOUDS BELOW 12,000 FEET WITH NO
SIGNIFICANT WEATHER AND/OR OBSTRUCTIONS TO VISIBILITY.

NOT ALL STATIONS ARE QUALITY CONTROLLED BY THE NATIONAL
WEATHER SERVICE. USE DATA WITH CAUTION...ESPECIALLY
DEWPOINT OBSERVATIONS.

SCZ001>056-GAZ040-063>065-077-261100-
...UPSTATE SOUTH CAROLINA...

CITY           SKY/WX    TMP DP  RH WIND       PRES   REMARKS
ANDERSON       LGT RAIN  47  45  93 E6        29.93F
LIBERTY        RAIN      45  45 100 MISG      29.92F
SPARTANBURG    RAIN      46 N/A N/A NE3       29.96S
CLEMSON        LGT RAIN  48  44  86 VRB3      29.94F
GREENVILLE     RAIN      46  43  89 E8        29.95F
GREENWOOD      RAIN      47  45  93 N8        29.96F
GREER          RAIN      45  44  97 NE8       29.94F
ROCK HILL      RAIN      44  43  96 N9        29.96R FOG
CHESTER        RAIN      46  45  93 N12       29.96R
LAURENS        RAIN     N/A N/A N/A NE3       29.96S


...CENTRAL SOUTH CAROLINA...

CITY           SKY/WX    TMP DP  RH WIND       PRES   REMARKS
COLUMBIA APT   RAIN      51  48  89 N13G22    29.93R FOG
COLUMBIA OWENS RAIN      51  48  89 NW9G20    29.95R FOG
DARLINGTON     CLOUDY    50  46  87 N12G20    29.86S
FLORENCE       HVY RAIN  52  50  93 N14       29.83R FOG
MCENTIRE ANGB  HVY RAIN  51  50  97 NW17      29.92R FOG
ORANGEBURG     LGT RAIN  53  50  89 N10       29.88R
SUMTER SHAW    HVY RAIN  50  46  87 NW13G20   29.88R FOG
NEWBERRY       RAIN      45 N/A N/A N10G16    29.98F
AIKEN          RAIN      48  48 100 N8        29.94F
BARNWELL       DRIZZLE   50  48  93 NW9       29.93R
CAMDEN         LGT RAIN  48  46  93 NW12      29.89R
LANCASTER      RAIN      45  45 100 N8        29.95R
WINNSBORO      RAIN      45  45 100 NW13G18   29.94R


...EASTERN AND COASTAL SOUTH CAROLINA...

CITY           SKY/WX    TMP DP  RH WIND       PRES   REMARKS
MYRTLE BEACH   CLOUDY    70  64  83 SW9G21    29.75R
N MYRTLE BCH   CLOUDY    68  65  90 SW13      29.74R
CONWAY         LGT RAIN  54 N/A N/A N5        29.77R
MARION         RAIN      54  54 100 SW7G17    29.82R
FLORENCE       HVY RAIN  52  50  93 N14       29.83R FOG
DARLINGTON     CLOUDY    50  46  87 N12G20    29.86S
CHARLESTON APT LGT RAIN  59  58  96 NW13      29.81R
WALTERBORO     RAIN      54 N/A N/A NW13      29.86R
BEAUFORT       LGT RAIN  53  50  89 NW14G23   29.87S FOG


...EASTERN GEORGIA...

CITY           SKY/WX    TMP DP  RH WIND       PRES   REMARKS
AUGUSTA BUSH F LGT RAIN  48  47  96 NW9       29.94F FOG
AUGUSTA DANIEL LGT RAIN  49  47  93 NW7       29.94F
THOMSON        CLOUDY    49  49 100 CALM      30.00F
WASHINGTON     LGT RAIN  48  48 100 CALM      29.94F
CLAXTON        RAIN      50  41  71 NW8       29.93F
SYLVANIA       DRIZZLE   48  48  97 N13       29.92F
STATESBORO     RAIN      48  48 100 NW12G21   29.92F
SAVANNAH       CLOUDY    52  48  86 NW10      29.89F


...SOUTHERN NORTH CAROLINA...

CITY           SKY/WX    TMP DP  RH WIND       PRES   REMARKS
CHARLOTTE      HVY RAIN  44  41  89 N13       29.94R FOG
MONROE         LGT RAIN  45  43  93 N13       29.92R
WADESBORO      LGT RAIN  48  46  95 NW10G21   29.89F
ROCKINGHAM     RAIN      48  47  97 N14G20    29.85F
RUTHERFORDTON  RAIN      43  43  99 CALM      29.96S
ASHEVILLE      LGT RAIN  41  39  93 N7        29.95S

$$



USA.gov is the U.S. government's official web portal to all federal, state and local government web resources and services.